Bastrop, LA

11:41 PM CDT on April 27, 2017 (GMT -0500)
Bastrop

Weather History for KBQP - December, 2013

Change the Weather History Date:

Saturday, December 28, 2013

  Actual Average (KMLU) Record (KMLU)
Temperature  
Mean Temperature 44 °F -  
Max Temperature 50 °F 56 °F 76 °F (2015)
Min Temperature 39 °F 38 °F 23 °F (1961)
Degree Days  
Heating Degree Days 20    
Moisture  
Dew Point 38 °F    
Average Humidity 76    
Maximum Humidity 91    
Minimum Humidity 62    
Precipitation  
Precipitation 0.00 in - - ()
Sea Level Pressure  
Sea Level Pressure 30.18 in    
Wind  
Wind Speed 0 mph (North)    
Max Wind Speed 0 mph    
Max Gust Speed -    
Visibility 10 miles    
Events Rain    
Averages and records for this station are not official NWS values.
T = Trace of Precipitation, MM = Missing Value Source: NWS Daily Summary

Daily Weather History Graph

Daily Weather History Graph

Search for Another Location

Airport or City:

Trip Planner

Search our weather history database for the weather conditions in past years. The results will help you decide how hot, cold, wet, or windy it might be!

Date:

Astronomy

Dec. 28, 2013 Rise Set
Actual Time 7:08 AM CST 5:09 PM CST
Civil Twilight 6:41 AM CST 5:36 PM CST
Nautical Twilight 6:10 AM CST 6:07 PM CST
Astronomical Twilight 5:40 AM CST 6:37 PM CST
Moon 2:53 AM CST 1:54 PM CST
Length of Visible Light 10h 55m
Length of Day
10h 00m
Waning Crescent, 19% of the Moon is Illuminated
Dec 28
Waning Crescent
Jan 1
New
Jan 7
First Quarter
Jan 15
Full
Jan 23
Last Quarter

Hourly Weather History & Observations

Time (CST) Temp. Dew Point Humidity Pressure Visibility Wind Dir Wind Speed Gust Speed Precip Events Conditions
12:15 AM 42.3 °F 36.1 °F 79% 30.35 in 10.0 mi Calm Calm - N/A   Clear
12:35 AM 41.9 °F 35.4 °F 78% 30.34 in 10.0 mi Calm Calm - N/A   Clear
12:55 AM 42.1 °F 36.5 °F 81% 30.34 in 10.0 mi Calm Calm - N/A   Clear
1:15 AM 43.0 °F 37.2 °F 80% 30.34 in 10.0 mi Calm Calm - N/A   Scattered Clouds
1:35 AM 43.9 °F 35.8 °F 73% 30.33 in 10.0 mi Calm Calm - N/A   Clear
1:55 AM 44.1 °F 35.1 °F 71% 30.32 in 10.0 mi Calm Calm - N/A   Clear
2:15 AM 43.5 °F 36.1 °F 75% 30.32 in 10.0 mi Calm Calm - N/A   Clear
2:35 AM 43.0 °F 37.6 °F 81% 30.31 in 10.0 mi Calm Calm - N/A   Clear
2:55 AM 42.4 °F 36.9 °F 81% 30.30 in 10.0 mi Calm Calm - N/A   Clear
3:15 AM 41.5 °F 36.5 °F 82% 30.31 in 10.0 mi Calm Calm - N/A   Clear
3:35 AM 41.9 °F 36.0 °F 79% 30.29 in 10.0 mi Calm Calm - N/A   Scattered Clouds
3:55 AM 42.3 °F 35.6 °F 77% 30.29 in 10.0 mi Calm Calm - N/A   Scattered Clouds
4:15 AM 41.7 °F 35.6 °F 79% 30.28 in 10.0 mi Calm Calm - N/A   Clear
4:35 AM 42.3 °F 34.3 °F 74% 30.27 in 10.0 mi Calm Calm - N/A   Clear
4:55 AM 41.5 °F 34.9 °F 77% 30.26 in 10.0 mi Calm Calm - N/A   Clear
5:15 AM 41.7 °F 34.9 °F 77% 30.27 in 10.0 mi Calm Calm - N/A   Clear
5:35 AM 41.7 °F 34.7 °F 76% 30.28 in 10.0 mi Calm Calm - N/A   Scattered Clouds
5:55 AM 40.3 °F 35.8 °F 84% 30.27 in 10.0 mi Calm Calm - N/A   Mostly Cloudy
6:15 AM 40.5 °F 36.1 °F 85% 30.28 in 10.0 mi Calm Calm - N/A   Scattered Clouds
6:35 AM 41.0 °F 37.0 °F 86% 30.27 in 10.0 mi Calm Calm - N/A   Clear
6:55 AM 41.2 °F 35.2 °F 79% 30.28 in 10.0 mi Calm Calm - N/A   Clear
7:15 AM 41.0 °F 37.0 °F 86% 30.29 in 10.0 mi Calm Calm - N/A   Clear
7:35 AM 41.9 °F 37.4 °F 84% 30.28 in 10.0 mi Calm Calm - N/A   Mostly Cloudy
7:55 AM 42.6 °F 36.9 °F 80% 30.26 in 10.0 mi Calm Calm - N/A   Overcast
8:15 AM 42.1 °F 37.0 °F 82% 30.27 in 10.0 mi Calm Calm - N/A   Scattered Clouds
8:35 AM 43.2 °F 37.9 °F 82% 30.28 in 10.0 mi Calm Calm - N/A   Scattered Clouds
8:55 AM 44.6 °F 37.0 °F 75% 30.28 in 10.0 mi Calm Calm - N/A   Mostly Cloudy
9:15 AM 44.6 °F 37.4 °F 76% 30.27 in 10.0 mi Calm Calm - N/A   Overcast
9:35 AM 44.8 °F 38.3 °F 78% 30.27 in 10.0 mi Calm Calm - N/A Rain Light Rain
9:55 AM 45.7 °F 38.1 °F 75% 30.27 in 10.0 mi Calm Calm - N/A   Mostly Cloudy
10:15 AM 45.9 °F 38.3 °F 75% 30.25 in 10.0 mi Calm Calm - N/A   Mostly Cloudy
10:35 AM 46.9 °F 38.7 °F 73% 30.25 in 10.0 mi Calm Calm - N/A Rain Light Rain
10:55 AM 46.9 °F 37.6 °F 70% 30.25 in 10.0 mi Calm Calm - N/A Rain Light Rain
11:15 AM 47.7 °F 40.3 °F 76% 30.23 in 10.0 mi Calm Calm - N/A   Light Drizzle
11:35 AM 48.2 °F 37.9 °F 68% 30.23 in 10.0 mi Calm Calm - N/A   Overcast
11:55 AM 48.4 °F 38.1 °F 68% 30.20 in 10.0 mi Calm Calm - N/A   Light Drizzle
12:15 PM 48.4 °F 37.8 °F 67% 30.19 in 10.0 mi Calm Calm - N/A   Light Drizzle
12:35 PM 48.4 °F 37.6 °F 66% 30.18 in 10.0 mi Calm Calm - N/A   Overcast
12:55 PM 48.9 °F 37.6 °F 65% 30.15 in 10.0 mi Calm Calm - N/A   Overcast
1:15 PM 49.1 °F 37.4 °F 64% 30.15 in 10.0 mi Calm Calm - N/A   Overcast
1:35 PM 49.6 °F 38.1 °F 65% 30.14 in 10.0 mi Calm Calm - N/A   Overcast
1:55 PM 49.3 °F 37.4 °F 64% 30.13 in 10.0 mi Calm Calm - N/A   Overcast
2:15 PM 49.5 °F 38.5 °F 66% 30.12 in 10.0 mi Calm Calm - N/A   Overcast
2:35 PM 50.0 °F 38.1 °F 64% 30.11 in 10.0 mi Calm Calm - N/A   Overcast
2:55 PM 50.5 °F 37.9 °F 62% 30.10 in 10.0 mi Calm Calm - N/A   Overcast
3:15 PM 50.0 °F 38.8 °F 66% 30.10 in 10.0 mi Calm Calm - N/A   Mostly Cloudy
3:35 PM 50.0 °F 39.2 °F 66% 30.09 in 10.0 mi Calm Calm - N/A   Overcast
3:55 PM 49.5 °F 39.4 °F 68% 30.08 in 10.0 mi Calm Calm - N/A   Mostly Cloudy
4:15 PM 49.1 °F 39.6 °F 70% 30.07 in 10.0 mi Calm Calm - N/A   Mostly Cloudy
4:35 PM 49.1 °F 39.4 °F 69% 30.07 in 10.0 mi Calm Calm - N/A   Overcast
4:55 PM 49.1 °F 39.4 °F 69% 30.07 in 10.0 mi Calm Calm - N/A   Overcast
5:15 PM 49.1 °F 39.6 °F 70% 30.06 in 10.0 mi Calm Calm - N/A   Overcast
5:35 PM 48.7 °F 39.7 °F 71% 30.08 in 10.0 mi Calm Calm - N/A   Overcast
5:55 PM 48.4 °F 40.8 °F 75% 30.07 in 10.0 mi Calm Calm - N/A   Overcast
6:15 PM 48.4 °F 40.5 °F 74% 30.07 in 10.0 mi Calm Calm - N/A   Overcast
6:35 PM 48.4 °F 40.3 °F 74% 30.07 in 10.0 mi Calm Calm - N/A   Overcast
6:55 PM 48.4 °F 40.3 °F 74% 30.07 in 10.0 mi Calm Calm - N/A   Overcast
7:15 PM 48.2 °F 40.5 °F 75% 30.06 in 10.0 mi Calm Calm - N/A   Overcast
7:35 PM 48.2 °F 41.0 °F 76% 30.05 in 10.0 mi Calm Calm - N/A   Overcast
7:55 PM 48.2 °F 40.5 °F 75% 30.05 in 10.0 mi Calm Calm - N/A   Overcast
8:15 PM 47.8 °F 40.6 °F 76% 30.05 in 10.0 mi Calm Calm - N/A   Overcast
8:35 PM 47.8 °F 41.2 °F 78% 30.04 in 10.0 mi Calm Calm - N/A   Overcast
8:55 PM 46.9 °F 41.0 °F 80% 30.04 in 10.0 mi Calm Calm - N/A   Mostly Cloudy
9:15 PM 45.9 °F 40.6 °F 82% 30.04 in 10.0 mi Calm Calm - N/A   Mostly Cloudy
9:35 PM 44.6 °F 40.6 °F 86% 30.04 in 10.0 mi Calm Calm - N/A   Scattered Clouds
9:55 PM 44.1 °F 40.5 °F 87% 30.03 in 10.0 mi Calm Calm - N/A   Clear
10:15 PM 43.2 °F 39.4 °F 86% 30.03 in 10.0 mi Calm Calm - N/A   Clear
10:35 PM 42.1 °F 38.8 °F 88% 30.04 in 10.0 mi Calm Calm - N/A   Clear
10:55 PM 41.9 °F 38.8 °F 89% 30.02 in 10.0 mi Calm Calm - N/A   Clear
11:15 PM 40.6 °F 38.3 °F 91% 30.01 in 7.0 mi Calm Calm - N/A   Clear
11:35 PM 39.9 °F 37.4 °F 91% 30.02 in 7.0 mi Calm Calm - N/A   Clear
11:55 PM 40.1 °F 37.8 °F 91% 30.02 in 5.0 mi Calm Calm - N/A   Clear